Unicom:                    122.8

AWOS:                  118.275

Elevation           1458’ MSL

TPA:                   2500’ MSL

06/24:         5003’ L   75’ W

PAPI:       06/Left     24/Left

(Operate lights on unicom freq.)

Traffic Pattern: Left

Beacon: Sunset to Sunrise

Windsock: yes, lighted

Segmented Circle: No

 

Cleveland Center: 126.72/291.65

FSS: Altoona

[Source: ADDS]
METAR
KFKL 260456Z AUTO 24008KT 10SM CLR 17/17 A3003 RMK AO2 SLP159 P0001 T01720167 402890128 =
KFKL 260520Z 2606/2706 24006KT P6SM SCT250 TEMPO 2608/2612 1/2SM FG OVC001 FM261200 25005KT P6SM BKN035 FM261900 29007KT P6SM VCSH BKN025 FM262200 28006KT P6SM BKN120
TAF
KFKL 260520Z 2606/2706 24006KT P6SM SCT250 TEMPO 2608/2612 1/2SM FG OVC001 FM261200 25005KT P6SM BKN035 FM261900 29007KT P6SM VCSH BKN025 FM262200 28006KT P6SM BKN120 =
[Source: ADDS]
METAR
KDUJ 260453Z AUTO 23007KT 10SM BKN037 17/16 A3002 RMK AO2 SLP153 T01670161 402780128 =
KDUJ 260520Z 2606/2706 24006KT P6SM SCT250 TEMPO 2608/2612 2SM BR FM261200 25005KT P6SM BKN035 FM261900 29007KT P6SM VCSH BKN025 FM270100 28006KT P6SM BKN120
TAF
KDUJ 260520Z 2606/2706 24006KT P6SM SCT250 TEMPO 2608/2612 2SM BR FM261200 25005KT P6SM BKN035 FM261900 29007KT P6SM VCSH BKN025 FM270100 28006KT P6SM BKN120 =

Welcome to Clarion County Airport.

We look forward to serving all of your aviation needs.


Clarion County Airport is a General Aviation, Business Class airport serving the Clarion County Area in Central Western Pennsylvania.  Our 5,003' asphalt runway and gps approaches are capable of serving most of the general aviation fleet in most weather conditions.


If you are planning a fuel stop while flying in Western Pennsylvania, consider paying us a visit. Our prices are some of the lowest in the state Check prices here ----> www.airnav.com/fuel and enter identifier KAXQ or see current prices below. We can have you fueled and taxiing out to the runway in about 10 minutes. Our current hours of operation are Monday- Saturday 8:00AM-4:00PM. The FBO building will be closed on Sundays until March 1st, 2019. Holiday closures are Christmas Day and Thanksgiving. If you require use of the facilities during the holidays or after hours please call ahead and someone will be there to assist you.


- Airport Manager -  


                             CURRENT FUEL PRICES AS OF 1/4/19      JET-A w/additive    $3.79               100LL     $4.65 CC   Cash $4.52


                              Self Service fueling available 24/7, credit card reader enabled. Center point fueling available upon request.

                                                           For after hours fueling assistance please contact 814-282-6001.